Flag for Guadeloupe

Past Weather in 16°19'42.9"N, 61°02'18.5"W, Guadeloupe — Yesterday and Last 2 Weeks

Currently: 77 °F. Passing clouds. (Weather station: Le Raizet - Guadeloupe, Guadeloupe). See more current weather

Past Weather in 16°19'42.9"N, 61°02'18.5"W — Graph

°F

16°19'42.9"N, 61°02'18.5"W Temperature Yesterday

Maximum temperature yesterday: 88 °F (at 12:00 pm)
Minimum temperature yesterday: 73 °F (at 4:00 am)
Average temperature yesterday: 81 °F

High & Low Weather Summary for the Past Weeks

 TemperatureHumidityPressure
High88 °F (Apr 7, 12:30 pm)100% (Apr 20, 5:00 am)30.09 "Hg (Apr 20, 5:00 am)
Low72 °F (Apr 9, 1:30 am)49% (Apr 9, 12:00 pm)29.86 "Hg (Apr 15, 3:00 am)
Average80 °F79%29.95 "Hg
* Reported Apr 7 1:00 am — Apr 22 1:30 am, 16°19'42.9"N, 61°02'18.5"W. Weather by CustomWeather, © 2024

Note: Actual official high and low records may vary slightly from our data, if they occured in-between our weather recording intervals... More about our weather records

16°19'42.9"N, 61°02'18.5"W Weather History for the Previous 24 Hours

Scroll right to see more
 ConditionsComfort  
Time TempWeatherWind HumidityBarometerVisibility
1:30 am
Mon, Apr 22
77 °FPartly cloudy.2 mph94%29.92 "HgN/A
1:00 am77 °FMostly cloudy.3 mph89%29.92 "HgN/A
12:30 am77 °FLight rain. Fog.7 mph89%29.95 "Hg3 mi
12:00 am77 °FLight rain. Fog.8 mph94%29.95 "Hg3 mi
11:30 pm
Sun, Apr 21
79 °FPartly cloudy.7 mph84%29.95 "HgN/A
11:00 pm79 °FPartly cloudy.6 mph84%29.95 "HgN/A
10:00 pm79 °FPassing clouds.7 mph84%29.95 "HgN/A
9:30 pm79 °FMostly cloudy.7 mph84%29.95 "HgN/A
9:00 pm79 °FPartly cloudy.7 mph79%29.95 "HgN/A
8:30 pm79 °FPassing clouds.6 mph84%29.95 "HgN/A
8:00 pm81 °FPartly cloudy.5 mph79%29.95 "HgN/A
7:30 pm81 °FPartly cloudy.7 mph79%29.92 "HgN/A
7:00 pm82 °FPartly cloudy.7 mph74%29.92 "HgN/A
6:30 pm82 °FPassing clouds.8 mph74%29.92 "HgN/A
6:00 pm82 °FPartly sunny.9 mph74%29.89 "HgN/A
5:30 pm84 °FBroken clouds.10 mph70%29.89 "HgN/A
5:00 pm84 °FPassing clouds.13 mph70%29.89 "HgN/A
4:30 pm84 °FPartly sunny.14 mph74%29.89 "HgN/A
4:00 pm86 °FPartly sunny.13 mph62%29.89 "HgN/A
3:00 pm88 °FBroken clouds.15 mph59%29.89 "HgN/A
2:30 pm88 °FPassing clouds.14 mph62%29.89 "HgN/A
2:00 pm88 °FBroken clouds.14 mph59%29.89 "HgN/A
1:30 pm88 °FScattered clouds.13 mph62%29.92 "HgN/A
1:00 pm86 °FBroken clouds.12 mph62%29.92 "HgN/A
12:30 pm88 °FPartly sunny.13 mph62%29.95 "HgN/A
12:00 pm88 °FScattered clouds.9 mph66%29.95 "HgN/A
11:30 am86 °FPartly sunny.12 mph70%29.95 "HgN/A
11:00 am86 °FPartly sunny.12 mph70%29.95 "HgN/A
10:30 am86 °FBroken clouds.12 mph75%29.95 "HgN/A
10:00 am86 °FBroken clouds.14 mph70%29.95 "HgN/A
9:30 am84 °FScattered clouds.10 mph79%29.95 "HgN/A
9:00 am81 °FLight rain. Partly sunny.15 mph84%29.95 "HgN/A
8:30 am84 °FScattered clouds.10 mph74%29.95 "HgN/A
8:00 am82 °FPartly sunny.7 mph84%29.95 "HgN/A
7:30 am81 °FPartly sunny.3 mph94%29.95 "HgN/A
7:00 am79 °FPartly sunny.5 mph94%29.95 "HgN/A
6:30 am77 °FFog.7 mph94%29.92 "Hg3 mi
6:00 am77 °FBroken clouds.3 mph94%29.92 "HgN/A
5:30 am75 °FPassing clouds.3 mph100%29.92 "HgN/A
5:00 am73 °FPassing clouds.No wind100%29.92 "HgN/A
4:30 am75 °FPassing clouds.No wind94%29.89 "HgN/A
4:00 am73 °FPassing clouds.2 mph100%29.89 "HgN/A
3:00 am75 °FPassing clouds.1 mph94%29.89 "HgN/A
2:30 am75 °FPassing clouds.2 mph94%29.89 "HgN/A
2:00 am75 °FClear.2 mph94%29.92 "Hg10 mi
Weather by CustomWeather, © 2024

See weather overview